Time,TemperatureF,DewpointF,PressureIn,WindDirection,WindDirectionDegrees,WindSpeedMPH,WindSpeedGustMPH,Humidity,HourlyPrecipIn,Conditions,Clouds,dailyrainin,SoftwareType,DateUTC
2013-08-25 00:12:00,61.0,46.0,29.73,SE,127,0.0,-999.0,58,-99.99,,,-99.99,,2013-08-25 07:12:00,
2013-08-25 00:22:00,60.0,45.0,29.73,SE,127,0.0,-999.0,58,-99.99,,,-99.99,,2013-08-25 07:22:00,
2013-08-25 00:52:00,59.0,43.0,29.73,SE,127,0.0,-999.0,56,-99.99,,,-99.99,,2013-08-25 07:52:00,
2013-08-25 01:12:00,59.0,45.0,29.74,SE,127,0.0,-999.0,59,-99.99,,,-99.99,,2013-08-25 08:12:00,
2013-08-25 01:21:00,59.0,46.0,29.74,SE,127,0.0,-999.0,62,-99.99,,,-99.99,,2013-08-25 08:21:00,
2013-08-25 01:52:00,58.0,45.0,29.74,SE,127,0.0,-999.0,62,-99.99,,,-99.99,,2013-08-25 08:52:00,
2013-08-25 02:11:00,58.0,45.0,29.73,SE,127,0.0,-999.0,62,-99.99,,,-99.99,,2013-08-25 09:11:00,
2013-08-25 02:22:00,57.0,45.0,29.73,SE,127,0.0,-999.0,65,-99.99,,,-99.99,,2013-08-25 09:22:00,
2013-08-25 02:44:00,57.0,45.0,29.73,SE,127,0.0,-999.0,64,-99.99,,,-99.99,,2013-08-25 09:44:00,
2013-08-25 02:55:00,57.0,45.0,29.72,SE,127,0.0,-999.0,63,-99.99,,,-99.99,,2013-08-25 09:55:00,
2013-08-25 03:12:00,56.0,44.0,29.72,SE,127,0.0,-999.0,63,-99.99,,,-99.99,,2013-08-25 10:12:00,
2013-08-25 03:22:00,56.0,45.0,29.72,SE,127,0.0,-999.0,66,-99.99,,,-99.99,,2013-08-25 10:22:00,
2013-08-25 03:53:00,55.0,42.0,29.72,SE,127,0.0,-999.0,61,-99.99,,,-99.99,,2013-08-25 10:53:00,
2013-08-25 04:11:00,55.0,42.0,29.73,SE,127,0.0,-999.0,62,-99.99,,,-99.99,,2013-08-25 11:11:00,
2013-08-25 04:22:00,55.0,41.0,29.73,SE,127,0.0,-999.0,59,-99.99,,,-99.99,,2013-08-25 11:22:00,
2013-08-25 04:52:00,54.0,41.0,29.74,SE,127,0.0,-999.0,61,-99.99,,,-99.99,,2013-08-25 11:52:00,
2013-08-25 05:12:00,54.0,41.0,29.74,SE,127,0.0,-999.0,62,-99.99,,,-99.99,,2013-08-25 12:12:00,
2013-08-25 05:22:00,54.0,40.0,29.74,SE,127,0.0,-999.0,60,-99.99,,,-99.99,,2013-08-25 12:22:00,
2013-08-25 05:42:00,54.0,40.0,29.73,SE,127,0.0,-999.0,60,-99.99,,,-99.99,,2013-08-25 12:42:00,
2013-08-25 05:52:00,54.0,40.0,29.72,SE,127,0.0,-999.0,59,-99.99,,,-99.99,,2013-08-25 12:52:00,
2013-08-25 06:11:00,54.0,40.0,29.72,SE,127,0.0,-999.0,59,-99.99,,,-99.99,,2013-08-25 13:11:00,
2013-08-25 06:21:00,54.0,43.0,29.73,SE,127,0.0,-999.0,65,-99.99,,,-99.99,,2013-08-25 13:21:00,
2013-08-25 06:52:00,54.0,40.0,29.74,SE,127,0.0,-999.0,60,-99.99,,,-99.99,,2013-08-25 13:52:00,
2013-08-25 07:11:00,54.0,40.0,29.74,SE,127,0.0,-999.0,60,-99.99,,,-99.99,,2013-08-25 14:11:00,
2013-08-25 07:23:00,54.0,40.0,29.75,SE,127,0.0,-999.0,60,-99.99,,,-99.99,,2013-08-25 14:23:00,
2013-08-25 07:52:00,55.0,43.0,29.75,SE,127,0.0,-999.0,64,-99.99,,,-99.99,,2013-08-25 14:52:00,
2013-08-25 08:23:00,58.0,44.0,29.75,SE,127,0.0,-999.0,60,-99.99,,,-99.99,,2013-08-25 15:23:00,
2013-08-25 08:44:00,61.0,46.0,29.75,SE,127,0.0,-999.0,57,-99.99,,,-99.99,,2013-08-25 15:44:00,
2013-08-25 08:54:00,63.0,46.0,29.75,SE,127,0.0,-999.0,54,-99.99,,,-99.99,,2013-08-25 15:54:00,
2013-08-25 09:24:00,67.0,47.0,29.76,SE,127,0.0,-999.0,48,-99.99,,,-99.99,,2013-08-25 16:24:00,
2013-08-25 09:54:00,71.0,48.0,29.76,SE,127,0.0,-999.0,44,-99.99,,,-99.99,,2013-08-25 16:54:00,
2013-08-25 10:11:00,74.0,49.0,29.76,ESE,110,0.0,-999.0,41,-99.99,,,-99.99,,2013-08-25 17:11:00,
2013-08-25 10:22:00,76.0,49.0,29.76,ESE,103,0.0,-999.0,39,-99.99,,,-99.99,,2013-08-25 17:22:00,
2013-08-25 10:53:00,79.0,50.0,29.76,ESE,111,0.0,-999.0,37,-99.99,,,-99.99,,2013-08-25 17:53:00,
2013-08-25 11:12:00,82.0,53.0,29.76,ENE,66,0.0,-999.0,37,-99.99,,,-99.99,,2013-08-25 18:12:00,
2013-08-25 11:21:00,83.0,52.0,29.75,East,92,0.0,-999.0,35,-99.99,,,-99.99,,2013-08-25 18:21:00,
2013-08-25 11:42:00,85.0,52.0,29.75,ESE,103,0.0,-999.0,32,-99.99,,,-99.99,,2013-08-25 18:42:00,
2013-08-25 11:52:00,86.0,55.0,29.75,East,88,0.0,-999.0,35,-99.99,,,-99.99,,2013-08-25 18:52:00,
2013-08-25 12:11:00,88.0,55.0,29.75,ESE,106,0.0,-999.0,33,-99.99,,,-99.99,,2013-08-25 19:11:00,
2013-08-25 12:22:00,89.0,59.0,29.74,East,80,0.0,-999.0,36,-99.99,,,-99.99,,2013-08-25 19:22:00,
2013-08-25 12:42:00,90.0,59.0,29.74,NE,48,1.0,-999.0,36,-99.99,,,-99.99,,2013-08-25 19:42:00,
2013-08-25 12:53:00,91.0,59.0,29.74,East,82,1.0,-999.0,35,-99.99,,,-99.99,,2013-08-25 19:53:00,
2013-08-25 13:12:00,92.0,60.0,29.74,ESE,116,1.0,-999.0,35,-99.99,,,-99.99,,2013-08-25 20:12:00,
2013-08-25 13:23:00,93.0,61.0,29.73,ENE,63,1.0,-999.0,35,-99.99,,,-99.99,,2013-08-25 20:23:00,
2013-08-25 13:43:00,93.0,60.0,29.73,East,94,0.0,-999.0,34,-99.99,,,-99.99,,2013-08-25 20:43:00,
2013-08-25 13:53:00,94.0,60.0,29.73,ESE,115,0.0,-999.0,32,-99.99,,,-99.99,,2013-08-25 20:53:00,
2013-08-25 14:12:00,94.0,60.0,29.72,ESE,117,0.0,-999.0,33,-99.99,,,-99.99,,2013-08-25 21:12:00,
2013-08-25 14:22:00,94.0,60.0,29.72,East,96,0.0,-999.0,33,-99.99,,,-99.99,,2013-08-25 21:22:00,
2013-08-25 14:54:00,94.0,57.0,29.71,NE,40,0.0,-999.0,29,-99.99,,,-99.99,,2013-08-25 21:54:00,
2013-08-25 15:23:00,93.0,53.0,29.71,SE,126,1.0,-999.0,26,-99.99,,,-99.99,,2013-08-25 22:23:00,
2013-08-25 15:53:00,93.0,50.0,29.70,ENE,65,1.0,-999.0,23,-99.99,,,-99.99,,2013-08-25 22:53:00,
2013-08-25 16:12:00,94.0,53.0,29.70,NE,47,0.0,-999.0,25,-99.99,,,-99.99,,2013-08-25 23:12:00,
2013-08-25 16:23:00,93.0,52.0,29.70,ESE,117,0.0,-999.0,25,-99.99,,,-99.99,,2013-08-25 23:23:00,
2013-08-25 16:53:00,92.0,55.0,29.69,ENE,63,0.0,-999.0,29,-99.99,,,-99.99,,2013-08-25 23:53:00,
2013-08-25 17:11:00,91.0,53.0,29.69,SE,124,0.0,-999.0,28,-99.99,,,-99.99,,2013-08-26 00:11:00,
2013-08-25 17:22:00,90.0,55.0,29.69,East,87,0.0,-999.0,31,-99.99,,,-99.99,,2013-08-26 00:22:00,
2013-08-25 17:41:00,90.0,55.0,29.69,ESE,103,0.0,-999.0,31,-99.99,,,-99.99,,2013-08-26 00:41:00,
2013-08-25 17:52:00,90.0,55.0,29.69,ESE,110,0.0,-999.0,31,-99.99,,,-99.99,,2013-08-26 00:52:00,
2013-08-25 18:11:00,89.0,55.0,29.69,ENE,59,0.0,-999.0,32,-99.99,,,-99.99,,2013-08-26 01:11:00,
2013-08-25 18:22:00,88.0,54.0,29.70,East,89,0.0,-999.0,32,-99.99,,,-99.99,,2013-08-26 01:22:00,
2013-08-25 18:42:00,88.0,55.0,29.70,ESE,114,0.0,-999.0,33,-99.99,,,-99.99,,2013-08-26 01:42:00,
2013-08-25 18:52:00,88.0,55.0,29.70,ESE,114,0.0,-999.0,33,-99.99,,,-99.99,,2013-08-26 01:52:00,
2013-08-25 19:02:00,88.0,55.0,29.70,ESE,114,0.0,-999.0,33,-99.99,,,-99.99,,2013-08-26 02:02:00,
2013-08-25 19:11:00,88.0,55.0,29.70,ESE,114,0.0,-999.0,33,-99.99,,,-99.99,,2013-08-26 02:11:00,